Time,TemperatureF,DewpointF,PressureIn,WindDirection,WindDirectionDegrees,WindSpeedMPH,WindSpeedGustMPH,Humidity,HourlyPrecipIn,Conditions,Clouds,dailyrainin,SoftwareType,DateUTC
2013-08-08 00:02:00,78.2,75.0,29.91,SSE,158,0.0,0.0,90,0.00,,---,0.00,VWS V14.01,2013-08-08 05:02:00,
2013-08-08 00:07:00,78.2,75.3,29.91,South,180,0.0,0.0,91,0.00,,---,0.00,VWS V14.01,2013-08-08 05:07:00,
2013-08-08 00:12:00,78.0,74.8,29.91,South,180,0.0,0.0,90,0.00,,---,0.00,VWS V14.01,2013-08-08 05:12:00,
2013-08-08 00:17:00,78.0,74.8,29.91,South,180,0.0,0.0,90,0.00,,---,0.00,VWS V14.01,2013-08-08 05:17:00,
2013-08-08 00:22:00,78.0,74.8,29.91,South,180,0.0,0.0,90,0.00,,---,0.00,VWS V14.01,2013-08-08 05:22:00,
2013-08-08 00:27:00,78.0,74.8,29.88,SE,135,0.0,0.0,90,0.00,,---,0.00,VWS V14.01,2013-08-08 05:27:00,
2013-08-08 00:32:00,78.0,75.2,29.88,SE,135,0.0,0.0,91,0.00,,---,0.00,VWS V14.01,2013-08-08 05:32:00,
2013-08-08 00:37:00,77.8,75.0,29.88,SE,135,0.0,0.0,91,0.00,,---,0.00,VWS V14.01,2013-08-08 05:37:00,
2013-08-08 00:42:00,77.8,75.0,29.91,SE,135,0.0,0.0,91,0.00,,---,0.00,VWS V14.01,2013-08-08 05:42:00,
2013-08-08 00:47:00,77.8,75.3,29.91,SE,135,0.0,0.0,92,0.00,,---,0.00,VWS V14.01,2013-08-08 05:47:00,
2013-08-08 00:52:00,77.6,74.8,29.91,SE,135,0.0,0.0,91,0.00,,---,0.00,VWS V14.01,2013-08-08 05:52:00,
2013-08-08 00:57:00,77.6,75.1,29.91,SE,135,0.0,0.0,92,0.00,,---,0.00,VWS V14.01,2013-08-08 05:57:00,
2013-08-08 01:02:00,77.6,75.1,29.91,SE,135,0.0,0.0,92,0.00,,---,0.00,VWS V14.01,2013-08-08 06:02:00,
2013-08-08 01:07:00,77.6,75.1,29.91,SSE,158,0.0,0.0,92,0.00,,---,0.00,VWS V14.01,2013-08-08 06:07:00,
2013-08-08 01:12:00,77.5,75.0,29.91,SSE,158,0.0,0.0,92,0.00,,---,0.00,VWS V14.01,2013-08-08 06:12:00,
2013-08-08 01:17:00,77.5,75.0,29.91,SSE,158,0.0,0.0,92,0.00,,---,0.00,VWS V14.01,2013-08-08 06:17:00,
2013-08-08 01:22:00,77.3,74.8,29.91,SSE,158,0.0,0.0,92,0.00,,---,0.00,VWS V14.01,2013-08-08 06:22:00,
2013-08-08 01:27:00,77.3,74.8,29.88,SE,135,0.0,0.0,92,0.00,,---,0.00,VWS V14.01,2013-08-08 06:27:00,
2013-08-08 01:32:00,77.1,74.6,29.88,SE,135,0.0,0.0,92,0.00,,---,0.00,VWS V14.01,2013-08-08 06:32:00,
2013-08-08 01:37:00,77.1,74.6,29.88,SE,135,0.0,0.0,92,0.00,,---,0.00,VWS V14.01,2013-08-08 06:37:00,
2013-08-08 01:42:00,77.1,74.6,29.91,SE,135,0.0,0.0,92,0.00,,---,0.00,VWS V14.01,2013-08-08 06:42:00,
2013-08-08 01:47:00,76.9,74.4,29.91,SE,135,0.0,0.0,92,0.00,,---,0.00,VWS V14.01,2013-08-08 06:47:00,
2013-08-08 01:52:00,76.9,74.8,29.91,SE,135,0.0,0.0,93,0.00,,---,0.00,VWS V14.01,2013-08-08 06:52:00,
2013-08-08 01:57:00,76.9,74.8,29.91,SE,135,0.0,0.0,93,0.00,,---,0.00,VWS V14.01,2013-08-08 06:57:00,
2013-08-08 02:02:00,76.9,74.8,29.91,SE,135,0.0,0.0,93,0.00,,---,0.00,VWS V14.01,2013-08-08 07:02:00,
2013-08-08 02:07:00,76.7,74.6,29.91,SE,135,0.0,0.0,93,0.00,,---,0.00,VWS V14.01,2013-08-08 07:07:00,
2013-08-08 02:12:00,76.7,74.6,29.91,SE,135,0.0,0.0,93,0.00,,---,0.00,VWS V14.01,2013-08-08 07:12:00,
2013-08-08 02:17:00,76.7,74.6,29.91,SE,135,0.0,0.0,93,0.00,,---,0.00,VWS V14.01,2013-08-08 07:17:00,
2013-08-08 02:22:00,76.6,74.4,29.91,SE,135,0.0,0.0,93,0.00,,---,0.00,VWS V14.01,2013-08-08 07:22:00,
2013-08-08 02:27:00,76.6,74.4,29.91,SE,135,0.0,0.0,93,0.00,,---,0.00,VWS V14.01,2013-08-08 07:27:00,
2013-08-08 02:32:00,76.6,74.4,29.91,SE,135,0.0,0.0,93,0.00,,---,0.00,VWS V14.01,2013-08-08 07:32:00,
2013-08-08 02:37:00,76.6,74.4,29.91,SE,135,0.0,0.0,93,0.00,,---,0.00,VWS V14.01,2013-08-08 07:37:00,
2013-08-08 02:42:00,76.6,74.4,29.88,SE,135,0.0,0.0,93,0.00,,---,0.00,VWS V14.01,2013-08-08 07:42:00,
2013-08-08 02:48:00,76.6,74.7,29.88,SE,135,0.0,0.0,94,0.00,,---,0.00,VWS V14.01,2013-08-08 07:48:00,
2013-08-08 02:53:00,76.6,74.7,29.88,SE,135,0.0,0.0,94,0.00,,---,0.00,VWS V14.01,2013-08-08 07:53:00,
2013-08-08 02:58:00,76.6,74.7,29.88,SE,135,0.0,0.0,94,0.00,,---,0.00,VWS V14.01,2013-08-08 07:58:00,
2013-08-08 03:03:00,76.4,74.5,29.88,SE,135,0.0,0.0,94,0.00,,---,0.00,VWS V14.01,2013-08-08 08:03:00,
2013-08-08 03:08:00,76.4,74.5,29.88,SE,135,0.0,0.0,94,0.00,,---,0.00,VWS V14.01,2013-08-08 08:08:00,
2013-08-08 03:13:00,76.4,74.5,29.88,SE,135,0.0,0.0,94,0.00,,---,0.00,VWS V14.01,2013-08-08 08:13:00,
2013-08-08 03:18:00,76.2,74.3,29.88,SE,135,0.0,0.0,94,0.00,,---,0.00,VWS V14.01,2013-08-08 08:18:00,
2013-08-08 03:23:00,76.2,74.3,29.88,SE,135,0.0,0.0,94,0.00,,---,0.00,VWS V14.01,2013-08-08 08:23:00,
2013-08-08 03:28:00,76.2,74.3,29.88,SE,135,0.0,0.0,94,0.00,,---,0.00,VWS V14.01,2013-08-08 08:28:00,
2013-08-08 03:33:00,76.2,74.3,29.88,SE,135,0.0,0.0,94,0.00,,---,0.00,VWS V14.01,2013-08-08 08:33:00,
2013-08-08 03:38:00,76.2,74.3,29.88,SE,135,0.0,0.0,94,0.00,,---,0.00,VWS V14.01,2013-08-08 08:38:00,
2013-08-08 03:43:00,76.0,74.2,29.88,SE,135,0.0,0.0,94,0.00,,---,0.00,VWS V14.01,2013-08-08 08:43:00,
2013-08-08 03:48:00,76.0,74.5,29.88,SE,135,0.0,0.0,95,0.00,,---,0.00,VWS V14.01,2013-08-08 08:48:00,
2013-08-08 03:53:00,76.0,74.5,29.88,SE,135,0.0,0.0,95,0.00,,---,0.00,VWS V14.01,2013-08-08 08:53:00,
2013-08-08 03:58:00,76.0,74.5,29.88,SE,135,0.0,0.0,95,0.00,,---,0.00,VWS V14.01,2013-08-08 08:58:00,
2013-08-08 04:03:00,76.0,74.5,29.88,SE,135,0.0,0.0,95,0.00,,---,0.00,VWS V14.01,2013-08-08 09:03:00,
2013-08-08 04:08:00,75.8,74.3,29.88,SE,135,0.0,0.0,95,0.00,,---,0.00,VWS V14.01,2013-08-08 09:08:00,
2013-08-08 04:13:00,75.8,74.3,29.88,SE,135,0.0,0.0,95,0.00,,---,0.00,VWS V14.01,2013-08-08 09:13:00,
2013-08-08 04:18:00,75.8,74.3,29.88,SE,135,0.0,0.0,95,0.00,,---,0.00,VWS V14.01,2013-08-08 09:18:00,
2013-08-08 04:23:00,75.8,74.3,29.88,SE,135,0.0,0.0,95,0.00,,---,0.00,VWS V14.01,2013-08-08 09:23:00,
2013-08-08 04:28:00,75.7,74.1,29.88,SE,135,0.0,0.0,95,0.00,,---,0.00,VWS V14.01,2013-08-08 09:28:00,
2013-08-08 04:33:00,75.5,73.9,29.88,SE,135,0.0,0.0,95,0.00,,---,0.00,VWS V14.01,2013-08-08 09:33:00,
2013-08-08 04:38:00,75.5,73.9,29.88,SE,135,0.0,0.0,95,0.00,,---,0.00,VWS V14.01,2013-08-08 09:38:00,
2013-08-08 04:43:00,75.5,73.9,29.88,WNW,292,0.0,0.0,95,0.00,,---,0.00,VWS V14.01,2013-08-08 09:43:00,
2013-08-08 04:48:00,75.5,73.9,29.88,WNW,292,0.0,0.0,95,0.00,,---,0.00,VWS V14.01,2013-08-08 09:48:00,
2013-08-08 04:53:00,75.5,73.9,29.88,SW,225,0.0,0.0,95,0.00,,---,0.00,VWS V14.01,2013-08-08 09:53:00,
2013-08-08 04:58:00,75.5,73.9,29.88,SW,225,0.0,0.0,95,0.00,,---,0.00,VWS V14.01,2013-08-08 09:58:00,
2013-08-08 05:03:00,75.5,74.3,29.88,SW,225,0.0,0.0,96,0.00,,---,0.00,VWS V14.01,2013-08-08 10:03:00,
2013-08-08 05:08:00,75.5,74.3,29.88,SW,225,0.0,0.0,96,0.00,,---,0.00,VWS V14.01,2013-08-08 10:08:00,
2013-08-08 05:14:00,75.5,74.3,29.88,SW,225,0.0,0.0,96,0.00,,---,0.00,VWS V14.01,2013-08-08 10:14:00,
2013-08-08 05:19:00,75.5,74.3,29.88,SW,225,0.0,0.0,96,0.00,,---,0.00,VWS V14.01,2013-08-08 10:19:00,
2013-08-08 05:24:00,75.5,74.3,29.88,SW,225,0.0,0.0,96,0.00,,---,0.00,VWS V14.01,2013-08-08 10:24:00,
2013-08-08 05:29:00,75.5,74.3,29.88,SW,225,0.0,0.0,96,0.00,,---,0.00,VWS V14.01,2013-08-08 10:29:00,
2013-08-08 05:34:00,75.5,74.3,29.88,SW,225,0.0,0.0,96,0.00,,---,0.00,VWS V14.01,2013-08-08 10:34:00,
2013-08-08 05:39:00,75.5,74.3,29.88,SW,225,0.0,0.0,96,0.00,,---,0.00,VWS V14.01,2013-08-08 10:39:00,
2013-08-08 05:44:00,75.3,74.1,29.88,WSW,248,0.0,0.0,96,0.00,,---,0.00,VWS V14.01,2013-08-08 10:44:00,
2013-08-08 05:49:00,75.3,74.1,29.88,WSW,248,0.0,0.0,96,0.00,,---,0.00,VWS V14.01,2013-08-08 10:49:00,
2013-08-08 05:54:00,75.3,74.1,29.88,WSW,248,0.0,0.0,96,0.00,,---,0.00,VWS V14.01,2013-08-08 10:54:00,
2013-08-08 05:59:00,75.3,74.1,29.88,WSW,248,0.0,0.0,96,0.00,,---,0.00,VWS V14.01,2013-08-08 10:59:00,
2013-08-08 06:04:00,75.3,74.1,29.88,WSW,248,0.0,0.0,96,0.00,,---,0.00,VWS V14.01,2013-08-08 11:04:00,
2013-08-08 06:09:00,75.1,73.9,29.88,WSW,248,0.0,0.0,96,0.00,,---,0.00,VWS V14.01,2013-08-08 11:09:00,
2013-08-08 06:14:00,75.1,73.9,29.88,SSE,158,0.0,0.0,96,0.00,,---,0.00,VWS V14.01,2013-08-08 11:14:00,
2013-08-08 06:19:00,74.9,73.4,29.88,SE,135,0.0,0.0,95,0.00,,---,0.00,VWS V14.01,2013-08-08 11:19:00,
2013-08-08 06:24:00,74.9,73.4,29.88,SE,135,0.0,0.0,95,0.00,,---,0.00,VWS V14.01,2013-08-08 11:24:00,
2013-08-08 06:29:00,74.9,73.4,29.88,SE,135,0.0,0.0,95,0.00,,---,0.00,VWS V14.01,2013-08-08 11:29:00,
2013-08-08 06:34:00,74.9,73.7,29.88,SE,135,0.0,0.0,96,0.00,,---,0.00,VWS V14.01,2013-08-08 11:34:00,
2013-08-08 06:39:00,74.9,73.7,29.91,SSE,158,0.0,0.0,96,0.00,,---,0.00,VWS V14.01,2013-08-08 11:39:00,
2013-08-08 06:44:00,74.9,73.7,29.91,SSE,158,0.0,0.0,96,0.00,,---,0.00,VWS V14.01,2013-08-08 11:44:00,
2013-08-08 06:49:00,74.9,73.7,29.91,SSE,158,0.0,0.0,96,0.00,,---,0.00,VWS V14.01,2013-08-08 11:49:00,
2013-08-08 06:54:00,74.9,73.7,29.91,SSE,158,0.0,0.0,96,0.00,,---,0.00,VWS V14.01,2013-08-08 11:54:00,
2013-08-08 06:59:00,75.1,73.9,29.91,SSE,158,0.0,0.0,96,0.00,,---,0.00,VWS V14.01,2013-08-08 11:59:00,
2013-08-08 07:04:00,75.1,73.9,29.91,WSW,248,0.0,0.0,96,0.00,,---,0.00,VWS V14.01,2013-08-08 12:04:00,
2013-08-08 07:09:00,75.1,73.9,29.91,WSW,248,0.0,0.0,96,0.00,,---,0.00,VWS V14.01,2013-08-08 12:09:00,
2013-08-08 07:14:00,75.3,74.1,29.91,WSW,248,0.0,0.0,96,0.00,,---,0.00,VWS V14.01,2013-08-08 12:14:00,
2013-08-08 07:19:00,75.3,74.1,29.91,WSW,248,0.0,0.0,96,0.00,,---,0.00,VWS V14.01,2013-08-08 12:19:00,
2013-08-08 07:24:00,75.5,74.3,29.91,WSW,248,0.0,0.0,96,0.00,,---,0.00,VWS V14.01,2013-08-08 12:24:00,
2013-08-08 07:29:00,75.7,74.4,29.91,WSW,248,0.0,0.0,96,0.00,,---,0.00,VWS V14.01,2013-08-08 12:29:00,
2013-08-08 07:34:00,75.7,74.4,29.91,WSW,248,0.0,0.0,96,0.00,,---,0.00,VWS V14.01,2013-08-08 12:34:00,
2013-08-08 07:39:00,75.8,74.6,29.91,WSW,248,0.0,0.0,96,0.00,,---,0.00,VWS V14.01,2013-08-08 12:39:00,
2013-08-08 07:44:00,76.0,74.8,29.91,WSW,248,0.0,0.0,96,0.00,,---,0.00,VWS V14.01,2013-08-08 12:44:00,
2013-08-08 07:49:00,76.2,75.0,29.91,WSW,248,0.0,0.0,96,0.00,,---,0.00,VWS V14.01,2013-08-08 12:49:00,
2013-08-08 07:54:00,76.6,75.3,29.91,WSW,248,0.0,0.0,96,0.00,,---,0.00,VWS V14.01,2013-08-08 12:54:00,
2013-08-08 07:59:00,76.7,75.5,29.91,WSW,248,0.0,0.0,96,0.00,,---,0.00,VWS V14.01,2013-08-08 12:59:00,
2013-08-08 08:05:00,76.9,75.7,29.91,WSW,248,0.0,0.0,96,0.00,,---,0.00,VWS V14.01,2013-08-08 13:05:00,
2013-08-08 08:10:00,77.1,75.9,29.91,SSW,202,0.0,0.0,96,0.00,,---,0.00,VWS V14.01,2013-08-08 13:10:00,
2013-08-08 08:15:00,77.5,76.2,29.91,ENE,68,0.0,0.0,96,0.00,,---,0.00,VWS V14.01,2013-08-08 13:15:00,
2013-08-08 08:20:00,77.8,76.6,29.91,ENE,68,0.0,0.0,96,0.00,,---,0.00,VWS V14.01,2013-08-08 13:20:00,
2013-08-08 08:25:00,78.0,76.8,29.91,ENE,68,0.0,0.0,96,0.00,,---,0.00,VWS V14.01,2013-08-08 13:25:00,
2013-08-08 08:30:00,78.4,77.1,29.91,ENE,68,0.0,0.0,96,0.00,,---,0.00,VWS V14.01,2013-08-08 13:30:00,
2013-08-08 08:35:00,78.9,77.7,29.91,ENE,68,0.0,0.0,96,0.00,,---,0.00,VWS V14.01,2013-08-08 13:35:00,
2013-08-08 08:40:00,79.3,77.7,29.91,North,0,0.0,0.0,95,0.00,,---,0.00,VWS V14.01,2013-08-08 13:40:00,
2013-08-08 08:45:00,79.8,77.9,29.91,WNW,292,0.0,0.0,94,0.00,,---,0.00,VWS V14.01,2013-08-08 13:45:00,
2013-08-08 08:50:00,80.0,77.8,29.91,WNW,292,0.0,0.0,93,0.00,,---,0.00,VWS V14.01,2013-08-08 13:50:00,
2013-08-08 08:55:00,80.5,78.0,29.94,NNW,338,0.0,0.0,92,0.00,,---,0.00,VWS V14.01,2013-08-08 13:55:00,
2013-08-08 09:00:00,80.9,78.3,29.94,NNW,338,0.0,0.0,92,0.00,,---,0.00,VWS V14.01,2013-08-08 14:00:00,
2013-08-08 09:05:00,81.2,78.0,29.94,NNW,338,0.0,0.0,90,0.00,,---,0.00,VWS V14.01,2013-08-08 14:05:00,
2013-08-08 09:10:00,82.0,78.1,29.91,NNW,338,0.0,0.0,88,0.00,,---,0.00,VWS V14.01,2013-08-08 14:10:00,
2013-08-08 09:15:00,82.7,77.7,29.91,WNW,292,0.0,0.0,85,0.00,,---,0.00,VWS V14.01,2013-08-08 14:15:00,
2013-08-08 09:20:00,83.2,78.6,29.91,SW,225,0.0,0.0,86,0.00,,---,0.00,VWS V14.01,2013-08-08 14:20:00,
2013-08-08 09:25:00,83.6,77.5,29.94,NNW,338,0.0,0.0,82,0.00,,---,0.00,VWS V14.01,2013-08-08 14:25:00,
2013-08-08 09:30:00,84.5,76.5,29.94,NNW,338,0.0,0.0,77,0.00,,---,0.00,VWS V14.01,2013-08-08 14:30:00,
2013-08-08 09:35:00,84.8,77.6,29.94,NNW,338,0.0,0.0,79,0.00,,---,0.00,VWS V14.01,2013-08-08 14:35:00,
2013-08-08 09:40:00,85.4,78.1,29.91,ENE,68,0.0,0.0,79,0.00,,---,0.00,VWS V14.01,2013-08-08 14:40:00,
2013-08-08 09:45:00,85.9,77.9,29.91,NNE,22,0.0,0.0,77,0.00,,---,0.00,VWS V14.01,2013-08-08 14:45:00,
2013-08-08 09:50:00,86.3,77.8,29.91,NE,45,0.0,0.0,76,0.00,,---,0.00,VWS V14.01,2013-08-08 14:50:00,
2013-08-08 09:55:00,86.5,77.6,29.94,SSE,158,0.0,0.0,75,0.00,,---,0.00,VWS V14.01,2013-08-08 14:55:00,
2013-08-08 10:00:00,86.6,77.4,29.94,SSE,158,0.0,0.0,74,0.00,,---,0.00,VWS V14.01,2013-08-08 15:00:00,
2013-08-08 10:05:00,86.8,76.3,29.94,SSE,158,0.0,0.0,71,0.00,,---,0.00,VWS V14.01,2013-08-08 15:05:00,
2013-08-08 10:10:00,87.2,76.2,29.94,SSE,158,0.0,0.0,70,0.00,,---,0.00,VWS V14.01,2013-08-08 15:10:00,
2013-08-08 10:15:00,87.4,76.8,29.94,SSE,158,0.0,0.0,71,0.00,,---,0.00,VWS V14.01,2013-08-08 15:15:00,
2013-08-08 10:20:00,87.5,76.6,29.94,ENE,68,0.0,0.0,70,0.00,,---,0.00,VWS V14.01,2013-08-08 15:20:00,
2013-08-08 10:25:00,87.5,75.2,29.94,NE,45,0.0,0.0,67,0.00,,---,0.00,VWS V14.01,2013-08-08 15:25:00,
2013-08-08 10:30:00,87.7,76.3,29.94,NE,45,0.0,0.0,69,0.00,,---,0.00,VWS V14.01,2013-08-08 15:30:00,
2013-08-08 10:35:00,87.9,75.6,29.94,SSW,202,0.0,0.0,67,0.00,,---,0.00,VWS V14.01,2013-08-08 15:35:00,
2013-08-08 10:40:00,88.1,75.3,29.94,SSW,202,0.0,0.0,66,0.00,,---,0.00,VWS V14.01,2013-08-08 15:40:00,
2013-08-08 10:45:00,88.3,75.5,29.94,ESE,112,0.0,0.0,66,0.00,,---,0.00,VWS V14.01,2013-08-08 15:45:00,
2013-08-08 10:50:00,88.4,75.2,29.94,ESE,112,0.0,0.0,65,0.00,,---,0.00,VWS V14.01,2013-08-08 15:50:00,
2013-08-08 10:55:00,88.6,75.3,29.94,ESE,112,0.0,0.0,65,0.00,,---,0.00,VWS V14.01,2013-08-08 15:55:00,
2013-08-08 11:00:00,88.6,75.3,29.94,ESE,112,0.0,0.0,65,0.00,,---,0.00,VWS V14.01,2013-08-08 16:00:00,
2013-08-08 11:05:00,88.8,75.1,29.94,SSE,158,0.0,0.0,64,0.00,,---,0.00,VWS V14.01,2013-08-08 16:05:00,
2013-08-08 11:10:00,89.0,74.8,29.94,ENE,68,0.0,0.0,63,0.00,,---,0.00,VWS V14.01,2013-08-08 16:10:00,
2013-08-08 11:15:00,89.2,74.4,29.94,SSE,158,0.0,0.0,62,0.00,,---,0.00,VWS V14.01,2013-08-08 16:15:00,
2013-08-08 11:20:00,89.2,71.9,29.94,NW,315,0.0,0.0,57,0.00,,---,0.00,VWS V14.01,2013-08-08 16:20:00,
2013-08-08 11:25:00,89.3,73.1,29.94,ENE,68,0.0,0.0,59,0.00,,---,0.00,VWS V14.01,2013-08-08 16:25:00,
2013-08-08 11:30:00,89.3,73.1,29.94,NW,315,0.0,0.0,59,0.00,,---,0.00,VWS V14.01,2013-08-08 16:30:00,
2013-08-08 11:35:00,89.5,72.8,29.94,NW,315,0.0,0.0,58,0.00,,---,0.00,VWS V14.01,2013-08-08 16:35:00,
2013-08-08 11:40:00,89.7,73.5,29.94,WNW,292,0.0,0.0,59,0.00,,---,0.00,VWS V14.01,2013-08-08 16:40:00,
2013-08-08 11:45:00,90.1,74.8,29.94,East,90,0.0,0.0,61,0.00,,---,0.00,VWS V14.01,2013-08-08 16:45:00,
2013-08-08 11:46:00,90.1,74.8,29.94,East,90,0.0,0.0,61,0.00,,---,0.00,VWS V14.01,2013-08-08 16:46:00,
2013-08-08 11:51:00,90.1,74.3,29.94,NNE,22,0.0,0.0,60,0.00,,---,0.00,VWS V14.01,2013-08-08 16:51:00,
2013-08-08 11:56:00,90.2,73.5,29.94,SSW,202,0.0,0.0,58,0.00,,---,0.00,VWS V14.01,2013-08-08 16:56:00,
2013-08-08 12:01:00,90.2,74.5,29.94,SSE,158,0.0,0.0,60,0.00,,---,0.00,VWS V14.01,2013-08-08 17:01:00,
2013-08-08 12:06:00,89.2,74.0,29.94,SE,135,0.0,0.0,61,0.00,,---,0.00,VWS V14.01,2013-08-08 17:06:00,
2013-08-08 12:11:00,89.2,74.4,29.94,NE,45,0.0,0.0,62,0.00,,---,0.00,VWS V14.01,2013-08-08 17:11:00,
2013-08-08 12:16:00,89.3,75.1,29.94,NE,45,0.0,0.0,63,0.00,,---,0.00,VWS V14.01,2013-08-08 17:16:00,
2013-08-08 12:21:00,89.3,75.6,29.94,ENE,68,0.0,0.0,64,0.00,,---,0.00,VWS V14.01,2013-08-08 17:21:00,
2013-08-08 12:26:00,88.6,75.3,29.91,ENE,68,0.0,0.0,65,0.00,,---,0.00,VWS V14.01,2013-08-08 17:26:00,
2013-08-08 12:31:00,88.4,75.6,29.91,West,270,0.0,0.0,66,0.00,,---,0.00,VWS V14.01,2013-08-08 17:31:00,
2013-08-08 12:36:00,88.1,75.3,29.91,West,270,0.0,0.0,66,0.00,,---,0.00,VWS V14.01,2013-08-08 17:36:00,
2013-08-08 12:41:00,87.9,75.1,29.91,West,270,0.0,0.0,66,0.00,,---,0.00,VWS V14.01,2013-08-08 17:41:00,
2013-08-08 12:46:00,87.5,74.8,29.91,West,270,0.0,0.0,66,0.00,,---,0.00,VWS V14.01,2013-08-08 17:46:00,
2013-08-08 12:51:00,87.7,75.4,29.91,WNW,292,0.0,0.0,67,0.00,,---,0.00,VWS V14.01,2013-08-08 17:51:00,
2013-08-08 12:56:00,88.6,76.3,29.91,NW,315,0.0,0.0,67,0.00,,---,0.00,VWS V14.01,2013-08-08 17:56:00,
2013-08-08 13:01:00,89.9,74.6,29.91,NNW,338,0.0,0.0,61,0.00,,---,0.00,VWS V14.01,2013-08-08 18:01:00,
2013-08-08 13:06:00,90.4,74.7,29.91,NNW,338,0.0,0.0,60,0.00,,---,0.00,VWS V14.01,2013-08-08 18:06:00,
2013-08-08 13:11:00,90.2,76.4,29.91,North,0,0.0,0.0,64,0.00,,---,0.00,VWS V14.01,2013-08-08 18:11:00,
2013-08-08 13:16:00,90.1,76.2,29.91,West,270,0.0,0.0,64,0.00,,---,0.00,VWS V14.01,2013-08-08 18:16:00,
2013-08-08 13:21:00,90.2,76.9,29.91,West,270,0.0,0.0,65,0.00,,---,0.00,VWS V14.01,2013-08-08 18:21:00,
2013-08-08 13:26:00,89.9,76.1,29.91,SSE,158,0.0,0.0,64,0.00,,---,0.00,VWS V14.01,2013-08-08 18:26:00,
2013-08-08 13:31:00,89.9,76.1,29.91,SW,225,0.0,0.0,64,0.00,,---,0.00,VWS V14.01,2013-08-08 18:31:00,
2013-08-08 13:36:00,89.7,75.9,29.91,SW,225,0.0,0.0,64,0.00,,---,0.00,VWS V14.01,2013-08-08 18:36:00,
2013-08-08 13:41:00,89.3,76.0,29.91,SW,225,0.0,0.0,65,0.00,,---,0.00,VWS V14.01,2013-08-08 18:41:00,
2013-08-08 13:46:00,89.0,76.2,29.91,SW,225,0.0,0.0,66,0.00,,---,0.00,VWS V14.01,2013-08-08 18:46:00,
2013-08-08 13:51:00,89.5,76.7,29.91,West,270,0.0,0.0,66,0.00,,---,0.00,VWS V14.01,2013-08-08 18:51:00,
2013-08-08 13:56:00,90.1,74.3,29.91,NNW,338,0.0,0.0,60,0.00,,---,0.00,VWS V14.01,2013-08-08 18:56:00,
2013-08-08 14:01:00,90.4,75.6,29.91,SE,135,0.0,0.0,62,0.00,,---,0.00,VWS V14.01,2013-08-08 19:01:00,
2013-08-08 14:06:00,89.7,75.4,29.91,ENE,68,0.0,0.0,63,0.00,,---,0.00,VWS V14.01,2013-08-08 19:06:00,
2013-08-08 14:11:00,89.3,75.1,29.88,NE,45,0.0,0.0,63,0.00,,---,0.00,VWS V14.01,2013-08-08 19:11:00,
2013-08-08 14:16:00,88.8,75.1,29.88,NE,45,0.0,0.0,64,0.00,,---,0.00,VWS V14.01,2013-08-08 19:16:00,
2013-08-08 14:21:00,88.6,75.8,29.88,ESE,112,0.0,0.0,66,0.00,,---,0.00,VWS V14.01,2013-08-08 19:21:00,
2013-08-08 14:26:00,88.8,76.0,29.88,NW,315,0.0,0.0,66,0.00,,---,0.00,VWS V14.01,2013-08-08 19:26:00,
2013-08-08 14:31:00,88.8,76.0,29.88,North,0,0.0,0.0,66,0.00,,---,0.00,VWS V14.01,2013-08-08 19:31:00,
2013-08-08 14:36:00,88.6,75.8,29.88,North,0,0.0,0.0,66,0.00,,---,0.00,VWS V14.01,2013-08-08 19:36:00,
2013-08-08 14:41:00,88.8,76.0,29.88,NE,45,0.0,0.0,66,0.00,,---,0.00,VWS V14.01,2013-08-08 19:41:00,
2013-08-08 14:46:00,89.0,75.7,29.88,NE,45,0.0,0.0,65,0.00,,---,0.00,VWS V14.01,2013-08-08 19:46:00,
2013-08-08 14:51:00,89.9,77.0,29.88,ENE,68,0.0,0.0,66,0.00,,---,0.00,VWS V14.01,2013-08-08 19:51:00,
2013-08-08 14:56:00,90.4,77.1,29.88,SSE,158,0.0,0.0,65,0.00,,---,0.00,VWS V14.01,2013-08-08 19:56:00,
2013-08-08 15:01:00,91.3,77.4,29.88,ENE,68,0.0,0.0,64,0.00,,---,0.00,VWS V14.01,2013-08-08 20:01:00,
2013-08-08 15:07:00,91.9,77.5,29.88,SSE,158,0.0,0.0,63,0.00,,---,0.00,VWS V14.01,2013-08-08 20:07:00,
2013-08-08 15:12:00,92.2,76.8,29.88,SSE,158,0.0,0.0,61,0.00,,---,0.00,VWS V14.01,2013-08-08 20:12:00,
2013-08-08 15:17:00,91.9,76.5,29.88,SE,135,0.0,0.0,61,0.00,,---,0.00,VWS V14.01,2013-08-08 20:17:00,
2013-08-08 15:22:00,91.9,76.0,29.88,West,270,0.0,0.0,60,0.00,,---,0.00,VWS V14.01,2013-08-08 20:22:00,
2013-08-08 15:27:00,92.0,76.2,29.85,ENE,68,0.0,0.0,60,0.00,,---,0.00,VWS V14.01,2013-08-08 20:27:00,
2013-08-08 15:32:00,91.9,76.0,29.85,ENE,68,0.0,0.0,60,0.00,,---,0.00,VWS V14.01,2013-08-08 20:32:00,
2013-08-08 15:37:00,92.0,75.7,29.85,WSW,248,0.0,0.0,59,0.00,,---,0.00,VWS V14.01,2013-08-08 20:37:00,
2013-08-08 15:42:00,92.2,74.8,29.88,WSW,248,0.0,0.0,57,0.00,,---,0.00,VWS V14.01,2013-08-08 20:42:00,
2013-08-08 15:47:00,92.6,75.1,29.88,SSE,158,0.0,0.0,57,0.00,,---,0.00,VWS V14.01,2013-08-08 20:47:00,
2013-08-08 15:52:00,92.6,75.1,29.88,SSE,158,0.0,0.0,57,0.00,,---,0.00,VWS V14.01,2013-08-08 20:52:00,
2013-08-08 15:57:00,92.6,75.1,29.85,SSE,158,0.0,0.0,57,0.00,,---,0.00,VWS V14.01,2013-08-08 20:57:00,
2013-08-08 16:02:00,92.6,75.1,29.85,SSE,158,0.0,0.0,57,0.00,,---,0.00,VWS V14.01,2013-08-08 21:02:00,
2013-08-08 16:07:00,92.6,75.1,29.85,South,180,0.0,0.0,57,0.00,,---,0.00,VWS V14.01,2013-08-08 21:07:00,
2013-08-08 16:12:00,91.3,75.0,29.85,SE,135,0.0,0.0,59,0.00,,---,0.00,VWS V14.01,2013-08-08 21:12:00,
2013-08-08 16:17:00,91.3,75.0,29.85,ESE,112,0.0,0.0,59,0.00,,---,0.00,VWS V14.01,2013-08-08 21:17:00,
2013-08-08 16:22:00,91.3,75.0,29.85,NNW,338,0.0,0.0,59,0.00,,---,0.00,VWS V14.01,2013-08-08 21:22:00,
2013-08-08 16:27:00,91.3,75.0,29.85,NNW,338,0.0,0.0,59,0.00,,---,0.00,VWS V14.01,2013-08-08 21:27:00,
2013-08-08 16:32:00,91.3,75.0,29.85,NNW,338,0.0,0.0,59,0.00,,---,0.00,VWS V14.01,2013-08-08 21:32:00,
2013-08-08 16:37:00,91.3,75.0,29.85,NNW,338,0.0,0.0,59,0.00,,---,0.00,VWS V14.01,2013-08-08 21:37:00,
2013-08-08 16:42:00,91.3,75.0,29.85,NNW,338,0.0,0.0,59,0.00,,---,0.00,VWS V14.01,2013-08-08 21:42:00,
2013-08-08 16:47:00,88.8,75.5,29.85,NNW,338,0.0,0.0,65,0.00,,---,0.00,VWS V14.01,2013-08-08 21:47:00,
2013-08-08 16:52:00,88.3,75.5,29.85,NNW,338,0.0,0.0,66,0.00,,---,0.00,VWS V14.01,2013-08-08 21:52:00,
2013-08-08 16:57:00,88.4,76.1,29.85,North,0,0.0,0.0,67,0.00,,---,0.00,VWS V14.01,2013-08-08 21:57:00,
2013-08-08 17:02:00,88.3,75.9,29.85,NNE,22,0.0,0.0,67,0.00,,---,0.00,VWS V14.01,2013-08-08 22:02:00,
2013-08-08 17:07:00,87.9,76.0,29.85,NNE,22,0.0,0.0,68,0.00,,---,0.00,VWS V14.01,2013-08-08 22:07:00,
2013-08-08 17:13:00,87.9,76.0,29.85,NNE,22,0.0,0.0,68,0.00,,---,0.00,VWS V14.01,2013-08-08 22:13:00,
2013-08-08 17:18:00,88.1,76.2,29.85,NNE,22,0.0,0.0,68,0.00,,---,0.00,VWS V14.01,2013-08-08 22:18:00,
2013-08-08 17:23:00,88.3,77.2,29.85,NNE,22,0.0,0.0,70,0.00,,---,0.00,VWS V14.01,2013-08-08 22:23:00,
2013-08-08 17:28:00,88.4,77.8,29.85,ENE,68,0.0,0.0,71,0.00,,---,0.00,VWS V14.01,2013-08-08 22:28:00,
2013-08-08 17:33:00,88.4,77.8,29.85,ENE,68,0.0,0.0,71,0.00,,---,0.00,VWS V14.01,2013-08-08 22:33:00,
2013-08-08 17:38:00,88.6,78.0,29.85,ENE,68,0.0,0.0,71,0.00,,---,0.00,VWS V14.01,2013-08-08 22:38:00,
2013-08-08 17:43:00,88.4,78.3,29.85,ENE,68,0.0,0.0,72,0.00,,---,0.00,VWS V14.01,2013-08-08 22:43:00,
2013-08-08 17:48:00,88.4,78.3,29.85,ENE,68,0.0,0.0,72,0.00,,---,0.00,VWS V14.01,2013-08-08 22:48:00,
2013-08-08 17:53:00,88.4,78.3,29.85,ENE,68,0.0,0.0,72,0.00,,---,0.00,VWS V14.01,2013-08-08 22:53:00,
2013-08-08 17:59:00,88.6,78.4,29.85,ENE,68,0.0,0.0,72,0.00,,---,0.00,VWS V14.01,2013-08-08 22:59:00,
2013-08-08 18:04:00,88.6,78.9,29.85,ENE,68,0.0,0.0,73,0.00,,---,0.00,VWS V14.01,2013-08-08 23:04:00,
2013-08-08 18:09:00,88.6,78.9,29.85,ENE,68,0.0,0.0,73,0.00,,---,0.00,VWS V14.01,2013-08-08 23:09:00,
2013-08-08 18:14:00,88.6,78.9,29.85,ENE,68,0.0,0.0,73,0.00,,---,0.00,VWS V14.01,2013-08-08 23:14:00,
2013-08-08 18:19:00,88.6,78.9,29.85,ENE,68,0.0,0.0,73,0.00,,---,0.00,VWS V14.01,2013-08-08 23:19:00,
2013-08-08 18:24:00,88.4,79.1,29.85,ENE,68,0.0,0.0,74,0.00,,---,0.00,VWS V14.01,2013-08-08 23:24:00,
2013-08-08 18:29:00,88.3,78.9,29.85,ENE,68,0.0,0.0,74,0.00,,---,0.00,VWS V14.01,2013-08-08 23:29:00,
2013-08-08 18:34:00,88.1,78.8,29.85,ENE,68,0.0,0.0,74,0.00,,---,0.00,VWS V14.01,2013-08-08 23:34:00,
2013-08-08 18:39:00,88.1,78.8,29.85,ENE,68,0.0,0.0,74,0.00,,---,0.00,VWS V14.01,2013-08-08 23:39:00,
2013-08-08 18:44:00,87.7,78.4,29.85,ENE,68,0.0,0.0,74,0.00,,---,0.00,VWS V14.01,2013-08-08 23:44:00,
2013-08-08 18:49:00,87.4,78.1,29.85,ENE,68,0.0,0.0,74,0.00,,---,0.00,VWS V14.01,2013-08-08 23:49:00,
2013-08-08 18:54:00,87.2,77.5,29.85,ENE,68,0.0,0.0,73,0.00,,---,0.00,VWS V14.01,2013-08-08 23:54:00,
2013-08-08 18:59:00,86.8,77.5,29.85,ENE,68,0.0,0.0,74,0.00,,---,0.00,VWS V14.01,2013-08-08 23:59:00,
2013-08-08 19:04:00,86.6,77.4,29.85,NE,45,0.0,0.0,74,0.00,,---,0.00,VWS V14.01,2013-08-09 00:04:00,
2013-08-08 19:10:00,86.3,77.0,29.85,NE,45,0.0,0.0,74,0.00,,---,0.00,VWS V14.01,2013-08-09 00:10:00,
2013-08-08 19:15:00,85.9,76.7,29.85,NE,45,0.0,0.0,74,0.00,,---,0.00,VWS V14.01,2013-08-09 00:15:00,
2013-08-08 19:20:00,85.7,77.3,29.85,NE,45,0.0,0.0,76,0.00,,---,0.00,VWS V14.01,2013-08-09 00:20:00,
2013-08-08 19:25:00,85.4,77.0,29.88,NE,45,0.0,0.0,76,0.00,,---,0.00,VWS V14.01,2013-08-09 00:25:00,
2013-08-08 19:30:00,85.0,77.0,29.88,NE,45,0.0,0.0,77,0.00,,---,0.00,VWS V14.01,2013-08-09 00:30:00,
2013-08-08 19:35:00,84.8,76.8,29.88,NE,45,0.0,0.0,77,0.00,,---,0.00,VWS V14.01,2013-08-09 00:35:00,
2013-08-08 19:40:00,84.5,76.9,29.88,NE,45,0.0,0.0,78,0.00,,---,0.00,VWS V14.01,2013-08-09 00:40:00,
2013-08-08 19:45:00,84.3,76.7,29.88,NE,45,0.0,0.0,78,0.00,,---,0.00,VWS V14.01,2013-08-09 00:45:00,
2013-08-08 19:50:00,83.9,76.7,29.88,NE,45,0.0,0.0,79,0.00,,---,0.00,VWS V14.01,2013-08-09 00:50:00,
2013-08-08 19:55:00,83.8,76.9,29.88,ENE,68,0.0,0.0,80,0.00,,---,0.00,VWS V14.01,2013-08-09 00:55:00,
2013-08-08 20:00:00,83.6,77.1,29.88,East,90,0.0,0.0,81,0.00,,---,0.00,VWS V14.01,2013-08-09 01:00:00,
2013-08-08 20:05:00,83.4,77.3,29.88,East,90,0.0,0.0,82,0.00,,---,0.00,VWS V14.01,2013-08-09 01:05:00,
2013-08-08 20:10:00,83.2,77.5,29.88,East,90,0.0,0.0,83,0.00,,---,0.00,VWS V14.01,2013-08-09 01:10:00,
2013-08-08 20:16:00,83.0,77.3,29.88,East,90,0.0,0.0,83,0.00,,---,0.00,VWS V14.01,2013-08-09 01:16:00,
2013-08-08 20:21:00,82.9,77.5,29.88,East,90,0.0,0.0,84,0.00,,---,0.00,VWS V14.01,2013-08-09 01:21:00,
2013-08-08 20:26:00,82.7,77.4,29.88,East,90,0.0,0.0,84,0.00,,---,0.00,VWS V14.01,2013-08-09 01:26:00,
2013-08-08 20:31:00,82.5,77.2,29.88,East,90,0.0,0.0,84,0.00,,---,0.00,VWS V14.01,2013-08-09 01:31:00,
2013-08-08 20:36:00,82.5,77.2,29.88,East,90,0.0,0.0,84,0.00,,---,0.00,VWS V14.01,2013-08-09 01:36:00,
2013-08-08 20:41:00,82.3,77.0,29.88,East,90,0.0,0.0,84,0.00,,---,0.00,VWS V14.01,2013-08-09 01:41:00,
2013-08-08 20:46:00,82.1,77.2,29.88,East,90,0.0,0.0,85,0.00,,---,0.00,VWS V14.01,2013-08-09 01:46:00,
2013-08-08 20:51:00,82.1,77.2,29.88,ESE,112,0.0,0.0,85,0.00,,---,0.00,VWS V14.01,2013-08-09 01:51:00,
2013-08-08 20:56:00,82.0,77.0,29.88,ESE,112,0.0,0.0,85,0.00,,---,0.00,VWS V14.01,2013-08-09 01:56:00,
2013-08-08 21:01:00,81.8,77.2,29.88,ESE,112,0.0,0.0,86,0.00,,---,0.00,VWS V14.01,2013-08-09 02:01:00,
2013-08-08 21:06:00,81.8,77.2,29.88,NNW,338,0.0,0.0,86,0.00,,---,0.00,VWS V14.01,2013-08-09 02:06:00,
2013-08-08 21:11:00,81.6,77.0,29.88,North,0,0.0,0.0,86,0.00,,---,0.00,VWS V14.01,2013-08-09 02:11:00,
2013-08-08 21:16:00,81.6,77.4,29.88,North,0,0.0,0.0,87,0.00,,---,0.00,VWS V14.01,2013-08-09 02:16:00,
2013-08-08 21:21:00,81.6,77.4,29.88,SSE,158,0.0,0.0,87,0.00,,---,0.00,VWS V14.01,2013-08-09 02:21:00,
2013-08-08 21:26:00,81.4,77.5,29.88,SSE,158,0.0,0.0,88,0.00,,---,0.00,VWS V14.01,2013-08-09 02:26:00,
2013-08-08 21:31:00,81.2,77.3,29.88,SSE,158,0.0,0.0,88,0.00,,---,0.00,VWS V14.01,2013-08-09 02:31:00,
2013-08-08 21:36:00,81.1,77.2,29.88,SSE,158,0.0,0.0,88,0.00,,---,0.00,VWS V14.01,2013-08-09 02:36:00,
2013-08-08 21:42:00,81.1,77.2,29.88,SE,135,0.0,0.0,88,0.00,,---,0.00,VWS V14.01,2013-08-09 02:42:00,
2013-08-08 21:47:00,81.1,77.2,29.88,SE,135,0.0,0.0,88,0.00,,---,0.00,VWS V14.01,2013-08-09 02:47:00,
2013-08-08 21:52:00,80.9,77.3,29.88,SE,135,0.0,0.0,89,0.00,,---,0.00,VWS V14.01,2013-08-09 02:52:00,
2013-08-08 21:57:00,80.9,77.3,29.88,SSE,158,0.0,0.0,89,0.00,,---,0.00,VWS V14.01,2013-08-09 02:57:00,
2013-08-08 22:02:00,80.7,77.2,29.88,SSE,158,0.0,0.0,89,0.00,,---,0.00,VWS V14.01,2013-08-09 03:02:00,
2013-08-08 22:07:00,80.7,77.2,29.88,SSE,158,0.0,0.0,89,0.00,,---,0.00,VWS V14.01,2013-08-09 03:07:00,
2013-08-08 22:13:00,80.5,77.0,29.91,SE,135,0.0,0.0,89,0.00,,---,0.00,VWS V14.01,2013-08-09 03:13:00,
2013-08-08 22:18:00,80.5,77.0,29.91,SSE,158,0.0,0.0,89,0.00,,---,0.00,VWS V14.01,2013-08-09 03:18:00,
2013-08-08 22:23:00,80.3,76.8,29.91,SE,135,0.0,0.0,89,0.00,,---,0.00,VWS V14.01,2013-08-09 03:23:00,
2013-08-08 22:28:00,80.3,76.8,29.88,ESE,112,0.0,0.0,89,0.00,,---,0.00,VWS V14.01,2013-08-09 03:28:00,
2013-08-08 22:33:00,80.3,76.8,29.88,ESE,112,0.0,0.0,89,0.00,,---,0.00,VWS V14.01,2013-08-09 03:33:00,
2013-08-08 22:38:00,80.3,76.8,29.88,SSE,158,0.0,0.0,89,0.00,,---,0.00,VWS V14.01,2013-08-09 03:38:00,
2013-08-08 22:44:00,80.2,76.6,29.88,SSE,158,0.0,0.0,89,0.00,,---,0.00,VWS V14.01,2013-08-09 03:44:00,
2013-08-08 22:49:00,80.2,76.6,29.88,SSE,158,0.0,0.0,89,0.00,,---,0.00,VWS V14.01,2013-08-09 03:49:00,
2013-08-08 22:54:00,80.2,76.6,29.88,SSE,158,0.0,0.0,89,0.00,,---,0.00,VWS V14.01,2013-08-09 03:54:00,
2013-08-08 22:59:00,80.2,77.0,29.88,SE,135,0.0,0.0,90,0.00,,---,0.00,VWS V14.01,2013-08-09 03:59:00,
2013-08-08 23:01:00,80.2,76.6,29.88,SE,135,0.0,0.0,89,0.00,,---,0.00,VWS V14.01,2013-08-09 04:01:00,
2013-08-08 23:02:00,80.2,76.6,29.88,SE,135,0.0,0.0,89,0.00,,---,0.00,VWS V14.01,2013-08-09 04:02:00,
2013-08-08 23:07:00,80.0,76.8,29.88,SE,135,0.0,0.0,90,0.00,,---,0.00,VWS V14.01,2013-08-09 04:07:00,
2013-08-08 23:12:00,80.0,76.8,29.88,SSE,158,0.0,0.0,90,0.00,,---,0.00,VWS V14.01,2013-08-09 04:12:00,
2013-08-08 23:17:00,79.8,76.6,29.88,SE,135,0.0,0.0,90,0.00,,---,0.00,VWS V14.01,2013-08-09 04:17:00,
2013-08-08 23:22:00,79.8,76.6,29.88,SE,135,0.0,0.0,90,0.00,,---,0.00,VWS V14.01,2013-08-09 04:22:00,
2013-08-08 23:27:00,79.8,76.6,29.88,SE,135,0.0,0.0,90,0.00,,---,0.00,VWS V14.01,2013-08-09 04:27:00,
2013-08-08 23:32:00,79.8,76.6,29.88,SSE,158,0.0,0.0,90,0.00,,---,0.00,VWS V14.01,2013-08-09 04:32:00,
2013-08-08 23:37:00,79.8,76.6,29.88,NE,45,0.0,0.0,90,0.00,,---,0.00,VWS V14.01,2013-08-09 04:37:00,
2013-08-08 23:42:00,79.8,76.6,29.91,ENE,68,0.0,0.0,90,0.00,,---,0.00,VWS V14.01,2013-08-09 04:42:00,
2013-08-08 23:47:00,79.8,76.6,29.91,ENE,68,0.0,0.0,90,0.00,,---,0.00,VWS V14.01,2013-08-09 04:47:00,
2013-08-08 23:52:00,79.6,76.8,29.91,NNW,338,0.0,0.0,91,0.00,,---,0.00,VWS V14.01,2013-08-09 04:52:00,
2013-08-08 23:57:00,79.6,76.8,29.91,NNW,338,0.0,0.0,91,0.00,,---,0.00,VWS V14.01,2013-08-09 04:57:00,